CCA6208 KSLC-PAII

Flight info

Callsign CCA6208
Flight time N/A
Altitude 36000
Route TCH J15 BOI J54 TOU J523 YZP Q801 TED J115 AKN
Aircraft B772/H-V/N

Departure

Time N/A
Airport Salt Lake City International Airport (KSLC)

Arrival

Time 2026-04-25 14:54
Airport Egegik Airport (PAII)
Time Latitude Longitude Altitude Speed Heading
2026-04-25 14:20 60.01162 -153.13271 36101 ft 469 kts 238°
2026-04-25 14:20 59.97732 -153.24261 36083 ft 471 kts 238°
2026-04-25 14:21 59.94195 -153.35377 36057 ft 470 kts 238°
2026-04-25 14:21 59.90664 -153.46376 36084 ft 470 kts 237°
2026-04-25 14:22 59.87131 -153.57324 35992 ft 467 kts 237°
2026-04-25 14:22 59.85368 -153.62765 35680 ft 467 kts 237°
2026-04-25 14:22 59.83605 -153.68193 35310 ft 467 kts 237°
2026-04-25 14:22 59.81839 -153.73618 34979 ft 467 kts 237°
2026-04-25 14:23 59.80069 -153.79043 34650 ft 466 kts 237°
2026-04-25 14:23 59.78309 -153.84425 34318 ft 465 kts 237°
2026-04-25 14:23 59.76545 -153.89807 33971 ft 464 kts 237°
2026-04-25 14:23 59.74786 -153.95161 33615 ft 463 kts 237°
2026-04-25 14:24 59.73041 -154.00459 33242 ft 462 kts 237°
2026-04-25 14:24 59.71301 -154.05806 32858 ft 461 kts 237°
2026-04-25 14:24 59.69590 -154.11132 32461 ft 460 kts 237°
2026-04-25 14:24 59.67843 -154.16444 32146 ft 457 kts 236°
2026-04-25 14:25 59.66101 -154.21656 31879 ft 453 kts 236°
2026-04-25 14:25 59.64363 -154.26828 31597 ft 449 kts 236°
2026-04-25 14:25 59.62637 -154.31952 31306 ft 446 kts 236°
2026-04-25 14:25 59.61503 -154.35316 31116 ft 444 kts 236°
2026-04-25 14:26 59.59221 -154.42075 30740 ft 440 kts 236°
2026-04-25 14:26 59.57528 -154.47087 30459 ft 437 kts 235°
2026-04-25 14:26 59.55852 -154.52050 30182 ft 434 kts 235°
2026-04-25 14:26 59.54182 -154.56975 29904 ft 431 kts 235°
2026-04-25 14:27 59.52481 -154.61810 29623 ft 428 kts 233°
2026-04-25 14:27 59.50755 -154.66574 29335 ft 425 kts 233°
2026-04-25 14:27 59.49047 -154.71243 29063 ft 422 kts 233°
2026-04-25 14:27 59.47332 -154.75932 28792 ft 419 kts 233°
2026-04-25 14:28 59.45646 -154.80541 28507 ft 416 kts 233°
2026-04-25 14:28 59.43953 -154.85169 28223 ft 413 kts 233°
2026-04-25 14:28 59.42269 -154.89767 27941 ft 411 kts 233°
2026-04-25 14:28 59.40626 -154.94248 27666 ft 408 kts 233°
2026-04-25 14:29 59.38971 -154.98757 27384 ft 406 kts 233°
2026-04-25 14:29 59.37322 -155.03240 27106 ft 403 kts 233°
2026-04-25 14:29 59.35692 -155.07666 26834 ft 400 kts 232°
2026-04-25 14:29 59.34061 -155.12108 26527 ft 399 kts 233°
2026-04-25 14:30 59.32476 -155.16556 26262 ft 396 kts 233°
2026-04-25 14:30 59.29337 -155.25307 25715 ft 391 kts 232°
2026-04-25 14:30 59.27759 -155.29642 25442 ft 389 kts 232°
2026-04-25 14:31 59.26191 -155.33922 25171 ft 386 kts 232°
2026-04-25 14:31 59.24621 -155.38189 24902 ft 384 kts 232°
2026-04-25 14:31 59.23082 -155.42359 24638 ft 382 kts 232°
2026-04-25 14:31 59.21527 -155.46559 24376 ft 379 kts 231°
2026-04-25 14:32 59.19986 -155.50713 24118 ft 377 kts 231°
2026-04-25 14:32 59.18453 -155.54835 23859 ft 375 kts 231°
2026-04-25 14:32 59.16901 -155.59001 23602 ft 373 kts 231°
2026-04-25 14:32 59.15406 -155.63008 23357 ft 371 kts 231°
2026-04-25 14:33 59.13885 -155.67075 23095 ft 369 kts 231°
2026-04-25 14:33 59.12374 -155.71110 22853 ft 367 kts 230°
2026-04-25 14:33 59.10869 -155.75119 22579 ft 366 kts 230°
2026-04-25 14:33 59.09368 -155.79113 22290 ft 365 kts 230°
2026-04-25 14:34 59.07868 -155.83097 22029 ft 364 kts 230°
2026-04-25 14:34 59.06390 -155.87016 21773 ft 363 kts 230°
2026-04-25 14:34 59.04896 -155.90970 21497 ft 362 kts 230°
2026-04-25 14:34 59.03408 -155.94903 21096 ft 360 kts 230°
2026-04-25 14:35 59.01936 -155.98787 20626 ft 358 kts 229°
2026-04-25 14:35 59.00463 -156.02667 20140 ft 355 kts 229°
2026-04-25 14:35 58.98997 -156.06521 19670 ft 352 kts 229°
2026-04-25 14:35 58.97542 -156.10342 19192 ft 349 kts 229°
2026-04-25 14:36 58.96123 -156.14061 18716 ft 347 kts 229°
2026-04-25 14:36 58.94675 -156.17852 18232 ft 344 kts 229°
2026-04-25 14:36 58.93268 -156.21528 17766 ft 342 kts 229°
2026-04-25 14:36 58.91857 -156.25214 17306 ft 340 kts 229°
2026-04-25 14:37 58.90474 -156.28910 16838 ft 338 kts 230°
2026-04-25 14:37 58.89096 -156.32579 16364 ft 335 kts 230°
2026-04-25 14:37 58.87716 -156.36195 15890 ft 333 kts 230°
2026-04-25 14:37 58.86332 -156.39780 15416 ft 331 kts 229°
2026-04-25 14:38 58.84955 -156.43324 14926 ft 330 kts 230°
2026-04-25 14:38 58.83581 -156.46852 14436 ft 329 kts 230°
2026-04-25 14:38 58.82199 -156.50392 13956 ft 328 kts 230°
2026-04-25 14:38 58.80825 -156.53906 13483 ft 326 kts 230°
2026-04-25 14:39 58.79461 -156.57391 13020 ft 325 kts 230°
2026-04-25 14:39 58.78104 -156.60856 12556 ft 323 kts 230°
2026-04-25 14:39 58.76746 -156.64322 12024 ft 324 kts 230°
2026-04-25 14:39 58.75394 -156.67769 11584 ft 322 kts 230°
2026-04-25 14:40 58.74507 -156.70034 11468 ft 315 kts 230°
2026-04-25 14:40 58.72798 -156.74391 11269 ft 301 kts 230°
2026-04-25 14:40 58.71519 -156.77501 11113 ft 290 kts 227°
2026-04-25 14:40 58.70215 -156.80392 10965 ft 281 kts 225°
2026-04-25 14:41 58.68916 -156.83132 10821 ft 272 kts 224°
2026-04-25 14:41 58.67641 -156.85764 10685 ft 264 kts 224°
2026-04-25 14:41 58.66409 -156.88320 10546 ft 257 kts 224°
2026-04-25 14:41 58.65233 -156.90778 10420 ft 249 kts 224°
2026-04-25 14:42 58.64079 -156.93202 10293 ft 242 kts 224°
2026-04-25 14:42 58.63695 -156.94008 10251 ft 240 kts 224°
2026-04-25 14:42 58.61827 -156.97947 9949 ft 242 kts 224°
2026-04-25 14:42 58.60714 -157.00296 9866 ft 236 kts 224°
2026-04-25 14:43 58.59597 -157.02676 9625 ft 244 kts 225°
2026-04-25 14:43 58.58464 -157.05176 9381 ft 252 kts 225°
2026-04-25 14:43 58.57300 -157.07732 9137 ft 258 kts 225°
2026-04-25 14:43 58.56106 -157.10317 8886 ft 258 kts 225°
2026-04-25 14:44 58.54919 -157.12851 8632 ft 255 kts 224°
2026-04-25 14:44 58.53729 -157.15371 8383 ft 253 kts 224°
2026-04-25 14:44 58.52553 -157.17852 8132 ft 250 kts 224°
2026-04-25 14:44 58.51403 -157.20269 7885 ft 248 kts 224°
2026-04-25 14:45 58.50249 -157.22690 7635 ft 245 kts 224°
2026-04-25 14:45 58.49096 -157.25105 7382 ft 243 kts 224°
2026-04-25 14:45 58.47955 -157.27493 7129 ft 241 kts 224°
2026-04-25 14:45 58.46837 -157.29829 6768 ft 233 kts 223°
2026-04-25 14:46 58.45770 -157.32058 6396 ft 227 kts 223°
2026-04-25 14:46 58.44723 -157.34244 6020 ft 221 kts 223°
2026-04-25 14:46 58.43698 -157.36383 5642 ft 216 kts 223°
2026-04-25 14:46 58.42687 -157.38492 5262 ft 212 kts 223°
2026-04-25 14:47 58.41702 -157.40546 4920 ft 209 kts 223°
2026-04-25 14:47 58.41384 -157.41209 4837 ft 209 kts 223°
2026-04-25 14:47 58.39754 -157.44606 4458 ft 205 kts 223°
2026-04-25 14:47 58.38804 -157.46586 4192 ft 204 kts 223°
2026-04-25 14:48 58.37831 -157.48594 3927 ft 203 kts 222°
2026-04-25 14:48 58.36869 -157.50495 3719 ft 199 kts 221°
2026-04-25 14:48 58.35905 -157.52355 3499 ft 195 kts 221°
2026-04-25 14:48 58.34959 -157.54179 3250 ft 194 kts 221°
2026-04-25 14:49 58.34012 -157.56006 2990 ft 189 kts 221°
2026-04-25 14:49 58.33111 -157.57742 2729 ft 180 kts 220°
2026-04-25 14:49 58.32144 -157.59111 2477 ft 166 kts 201°
2026-04-25 14:49 58.31043 -157.59135 2307 ft 155 kts 160°
2026-04-25 14:50 58.30322 -157.57783 2459 ft 147 kts 126°
2026-04-25 14:50 58.29889 -157.56029 2589 ft 145 kts 122°
2026-04-25 14:50 58.29490 -157.55001 2568 ft 146 kts 132°
2026-04-25 14:50 58.28500 -157.53308 2504 ft 144 kts 142°
2026-04-25 14:51 58.27713 -157.52117 2509 ft 144 kts 143°
2026-04-25 14:51 58.27199 -157.51332 2515 ft 142 kts 143°
2026-04-25 14:51 58.26460 -157.50137 2451 ft 138 kts 139°
2026-04-25 14:51 58.25542 -157.48452 2202 ft 136 kts 138°
2026-04-25 14:52 58.25063 -157.47624 2023 ft 138 kts 139°
2026-04-25 14:52 58.24335 -157.46528 1835 ft 131 kts 145°
2026-04-25 14:52 58.23613 -157.45495 1594 ft 130 kts 144°
2026-04-25 14:52 58.23122 -157.44820 1374 ft 131 kts 144°
2026-04-25 14:53 58.22167 -157.43422 1027 ft 130 kts 141°
2026-04-25 14:53 58.21481 -157.42315 813 ft 127 kts 139°
2026-04-25 14:53 58.20839 -157.41214 587 ft 127 kts 136°
2026-04-25 14:53 58.20171 -157.40192 422 ft 123 kts 141°
2026-04-25 14:54 58.19523 -157.39190 238 ft 117 kts 140°
2026-04-25 14:54 58.18943 -157.38253 108 ft 98 kts 139°
2026-04-25 14:54 58.18522 -157.37588 106 ft 54 kts 141°
2026-04-25 14:54 58.18454 -157.37445 106 ft 7 kts 88°
2026-04-25 14:55 58.18473 -157.37393 106 ft 4 kts 39°
2026-04-25 14:55 58.18486 -157.37376 106 ft 2 kts 26°
2026-04-25 14:55 58.18542 -157.37422 106 ft 19 kts 313°
2026-04-25 14:55 58.18668 -157.37620 106 ft 22 kts 320°
2026-04-25 14:56 58.18702 -157.37675 106 ft 0 kts 320°